Погода в Головино

Россия / Владимирская область     56°01′17″N   39°11′03″E
темп.,
°C
ветер,
м/с
пор.,
м/с
влажн.,
%
обл.,
%
осадки,
мм/ч
давл.,
гПа
погр.,
м
6 марта, сб
сб600:00−12сз11910 0.0 101421
03:00−13з12938 0.0 101621
06:00−13зсз22960 0.0 101523
09:00−10зсз23938 0.0 1016174
12:00−6зсз248282 0.0 1016750
15:00−5зсз347592 0.4 1014970
18:00−8з2287100 0.4 101422
21:00−11з229271 0.4 101321
7 марта, вс
вс700:00−13юз23940 0.0 101161
03:00−12ююз4119322 0.0 1008271
06:00−9ююз6139497 0.2 1003730
09:00−6ююз6129399 1.7 999893
12:00−4ююз71393100 1.5 9931080
15:00−2юз61295100 4.3 990967
18:00−6зсз91683100 2.3 9911142
21:00−8з5147780 2.4 994589
8 марта, пн
пн800:00−10зюз310940 0.0 995271
03:00−12зюз239513 0.0 99455
06:00−13зсз239590 0.0 99447
09:00−10зсз4108547 0.0 996450
12:00−7з588984 0.1 998869
15:00−6сз698592 0.6 1001982
18:00−9сз41088100 0.1 1004679
21:00−13сз399394 0.1 1008326
9 марта, вт
вт900:00−15сз389531 0.0 1010198
03:00−18сз369740 0.0 1012124
06:00−20сз259836 0.0 1014113
09:00−18ссз369118 0.0 1016315
12:00−15сз358432 0.0 1017565
15:00−13сз468157 0.0 1018752
18:00−17ссз379095 0.0 1018193
21:00−22ссз269653 0.0 1021141
10 марта, ср
ср1000:00−24ссз23970 0.0 102246
03:00−26ссз22970 0.0 102327
06:00−27ссз23970 0.0 102435
09:00−23с24930 0.0 1025239
12:00−17ссв24761 0.0 1026527
15:00−15с24751 0.0 1026675
18:00−19с22870 0.0 102620
21:00−22сз11898 0.0 102820